Weather in Quneitra

Syria     33°07′38″N   35°49′41″E
temp.,
°C
wind,
m/s
gust,
m/s
humid.,
%
clouds,
%
prec.,
mm/h
press.,
hPa
HPBL,
m
6 march, sat
sat623:00+4nnw227582 0.0 102522
02:00+5nne125050 0.0 102522
05:00+4ne11350 0.0 102422
08:00+11e11370 0.0 102566
11:00+14ssw32450 0.0 1024523
14:00+15wsw32490 0.0 1021564
17:00+11wnw12700 0.0 102124
20:00+8n12380 0.0 102122
7 march, sun
sun723:00+7n22270 0.0 102122
02:00+6nnw12260 0.0 101923
05:00+6nnw23245 0.0 101823
08:00+10wnw33432 0.0 1019130
11:00+13w44470 0.0 1018452
14:00+13wnw56570 0.0 1016583
17:00+9wnw45840 0.0 1015307
20:00+6nw34937 0.0 101677
8 march, mon
mon823:00+5nw349616 0.0 1016123
02:00+5nw359538 0.0 1016162
05:00+4nw349849 0.0 1015106
08:00+8wnw469154 0.1 1016448
11:00+10w688193 0.1 1015882
14:00+11wnw7107587 0.3 10141237
17:00+8wnw689390 0.3 1015735
20:00+8wnw469792 0.4 1016501
9 march, tue
tue923:00+6nw359690 0.1 1016261
02:00+6nw349792 0.1 1016212
05:00+5nw238460 0.0 101636
08:00+9wnw237244 0.0 1017170
11:00+12wnw455626 0.0 1017594
14:00+13wnw344928 0.0 1015588
17:00+10wnw226265 0.0 101581
20:00+11nne233970 0.0 101627
10 march, wed
wed1023:00+9sw114666 0.0 101622
02:00+10ssw014580 0.0 101422
05:00+11ene125499 0.0 101323
08:00+15ene2256100 0.0 1014180
11:00+18ese4548100 0.0 1012624
14:00+19ese5643100 0.0 1009623
17:00+16ese1150100 0.1 100624
20:00+14sse1139100 0.1 100623